Date String (YYYY-MM-DD hh:mm:ss) UTC,Instrument flags,Ambient pressure (hPa),Sample flow (lpm),Bypass flow (lpm),Sample temperature (°C),Ambient temperature (°C),ASC tube jacket temperature (°C),LED temperature (°C),Box temperature (°C),Sample RH (%),Span deviation,Mass concentration (μg/m³),Mass concentration (μg/m³),Mass concentration (μg/m³)
DateTimeUTC,F1_M11,P_M11,Q1_M11,Q2_M11,T1_M11,T2_M11,T3_M11,T4_M11,T5_M11,U1_M11,ZSPAN_M11,X0_M11,X2_M11,X1_M11
2022-01-24 09:00:00,,0821.3,5.00,0.00,22.6,22.0,00.0,31.5,24.4,09.1,0000.0,0000.75,0000.50,0000.40
2022-01-24 09:01:00,,0821.3,5.00,0.00,22.6,22.0,00.0,31.6,24.5,09.1,0000.0,0000.76,0000.50,0000.40
2022-01-24 09:02:00,,0821.3,4.99,0.00,22.6,22.0,00.0,31.6,24.5,09.1,0000.0,0000.77,0000.51,0000.41
2022-01-24 09:03:00,,0821.3,5.00,0.00,22.7,22.0,00.0,31.6,24.5,09.1,0000.0,0000.75,0000.51,0000.41
2022-01-24 09:04:00,,0821.3,5.02,0.00,22.7,22.0,00.0,31.6,24.5,09.1,0000.0,0000.64,0000.48,0000.41
2022-01-24 09:05:00,,0821.3,4.98,0.00,22.7,22.1,00.0,31.6,24.5,09.0,0000.0,0000.89,0000.47,0000.41
2022-01-24 09:06:00,,0821.3,5.00,0.00,22.7,22.1,00.0,31.6,24.5,09.0,0000.0,0000.94,0000.48,0000.41
2022-01-24 09:07:00,,0821.3,5.00,0.00,22.7,22.1,00.0,31.6,24.5,09.0,0000.0,0000.97,0000.50,0000.41
2022-01-24 09:08:00,,0821.3,5.00,0.00,22.7,22.1,00.0,31.6,24.6,09.0,0000.0,0000.95,0000.49,0000.41
2022-01-24 09:09:00,,0821.3,4.99,0.00,22.7,22.1,00.0,31.6,24.5,08.9,0000.0,0000.94,0000.49,0000.42
2022-01-24 09:10:00,,0821.3,5.00,0.00,22.8,22.1,00.0,31.6,24.6,08.9,0000.0,0000.92,0000.48,0000.42
2022-01-24 09:11:00,,0821.3,5.00,0.00,22.8,22.1,00.0,31.6,24.6,08.9,0000.0,0000.98,0000.51,0000.43
2022-01-24 09:12:00,,0821.3,5.00,0.00,22.8,22.1,00.0,31.7,24.6,08.9,0000.0,0001.01,0000.53,0000.43
2022-01-24 09:13:00,,0821.3,5.00,0.00,22.8,22.1,00.0,31.6,24.6,08.9,0000.0,0001.02,0000.52,0000.43
2022-01-24 09:14:00,,0821.3,5.00,0.00,22.8,22.1,00.0,31.7,24.6,08.9,0000.0,0001.03,0000.52,0000.42
2022-01-24 09:15:00,,0821.2,5.00,0.00,22.8,22.1,00.0,31.7,24.6,09.0,0000.0,0001.07,0000.54,0000.42
2022-01-24 09:16:00,,0821.2,4.99,0.00,22.8,22.1,00.0,31.7,24.6,08.9,0000.0,0000.84,0000.54,0000.42
2022-01-24 09:17:00,,0821.2,5.00,0.00,22.8,22.1,00.0,31.7,24.6,08.9,0000.0,0000.74,0000.52,0000.42
2022-01-24 09:18:00,,0821.2,5.01,0.00,22.8,22.1,00.0,31.7,24.6,08.9,0000.0,0000.72,0000.51,0000.42
2022-01-24 09:19:00,,0821.2,5.00,0.00,22.8,22.1,00.0,31.7,24.6,08.9,0000.0,0000.96,0000.53,0000.43
2022-01-24 09:20:00,,0821.3,4.99,0.00,22.8,22.1,00.0,31.7,24.6,08.9,0000.0,0001.33,0000.53,0000.42
2022-01-24 09:21:00,,0821.3,5.00,0.00,22.8,22.1,00.0,31.7,24.6,08.9,0000.0,0001.37,0000.55,0000.42
2022-01-24 09:22:00,,0821.3,5.02,0.00,22.8,22.1,00.0,31.7,24.6,08.9,0000.0,0001.32,0000.52,0000.42
2022-01-24 09:23:00,,0821.3,5.00,0.00,22.8,22.1,00.0,31.7,24.6,09.0,0000.0,0001.30,0000.51,0000.42
2022-01-24 09:24:00,,0821.3,5.00,0.00,22.8,22.1,00.0,31.7,24.6,09.3,0000.0,0001.30,0000.52,0000.43
2022-01-24 09:25:00,,0821.3,4.99,0.00,22.8,22.1,00.0,31.7,24.5,09.2,0000.0,0001.30,0000.53,0000.44
2022-01-24 09:26:00,,0821.3,5.00,0.00,22.8,22.1,00.0,31.7,24.5,08.6,0000.0,0001.25,0000.51,0000.43
2022-01-24 09:27:00,,0821.3,5.01,0.00,22.8,22.1,00.0,31.7,24.5,08.4,0000.0,0001.22,0000.50,0000.43
2022-01-24 09:28:00,,0821.3,5.01,0.00,22.7,22.0,00.0,31.7,24.4,08.5,0000.0,0001.26,0000.51,0000.44
2022-01-24 09:29:00,,0821.3,4.99,0.00,22.7,22.0,00.0,31.7,24.5,08.4,0000.0,0001.29,0000.51,0000.44
2022-01-24 09:30:00,,0821.3,4.99,0.00,22.7,22.0,00.0,31.7,24.5,08.5,0000.0,0001.01,0000.49,0000.44
2022-01-24 09:31:00,,0821.3,5.00,0.00,22.7,22.0,00.0,31.7,24.4,08.6,0000.0,0000.68,0000.49,0000.44
2022-01-24 09:32:00,,0821.3,5.02,0.00,22.7,22.0,00.0,31.7,24.4,08.7,0000.0,0000.65,0000.49,0000.45
2022-01-24 09:33:00,,0821.3,4.99,0.00,22.7,22.0,00.0,31.7,24.4,08.9,0000.0,0000.66,0000.49,0000.45
2022-01-24 09:34:00,,0821.3,5.00,0.00,22.7,22.0,00.0,31.7,24.4,08.7,0000.0,0000.68,0000.49,0000.45
2022-01-24 09:35:00,,0821.3,4.99,0.00,22.7,21.9,00.0,31.7,24.4,09.0,0000.0,0000.68,0000.50,0000.44
2022-01-24 09:36:00,,0821.3,5.01,0.00,22.7,21.9,00.0,31.7,24.4,09.0,0000.0,0000.70,0000.51,0000.45
2022-01-24 09:37:00,,0821.3,5.01,0.00,22.7,21.9,00.0,31.7,24.4,08.9,0000.0,0000.74,0000.54,0000.47
2022-01-24 09:38:00,,0821.3,5.01,0.00,22.7,21.9,00.0,31.7,24.5,08.8,0000.0,0000.75,0000.55,0000.49
2022-01-24 09:39:00,,0821.4,5.00,0.00,22.7,22.0,00.0,31.7,24.4,08.7,0000.0,0000.70,0000.55,0000.49
2022-01-24 09:40:00,,0821.4,5.00,0.00,22.7,22.0,00.0,31.7,24.5,08.8,0000.0,0000.66,0000.54,0000.49
2022-01-24 09:41:00,,0821.4,5.00,0.00,22.7,22.0,00.0,31.7,24.4,08.9,0000.0,0000.68,0000.56,0000.50
2022-01-24 09:42:00,,0821.4,4.99,0.00,22.7,22.0,00.0,31.7,24.5,09.5,0000.0,0000.74,0000.61,0000.55
2022-01-24 09:43:00,,0821.4,5.00,0.00,22.7,22.0,00.0,31.7,24.4,09.6,0000.0,0000.80,0000.67,0000.62
2022-01-24 09:44:00,,0821.4,5.01,0.00,22.7,22.0,00.0,31.7,24.4,09.6,0000.0,0000.98,0000.81,0000.75
2022-01-24 09:45:00,,0821.4,5.00,0.00,22.7,22.0,00.0,31.7,24.5,09.4,0000.0,0001.16,0000.94,0000.87
2022-01-24 09:46:00,,0821.4,5.00,0.00,22.7,22.0,00.0,31.7,24.5,09.3,0000.0,0001.34,0001.03,0000.97
2022-01-24 09:47:00,,0821.4,5.00,0.00,22.7,22.0,00.0,31.6,24.5,09.2,0000.0,0001.43,0001.09,0001.03
2022-01-24 09:48:00,,0821.4,5.02,0.00,22.7,22.0,00.0,31.6,24.4,09.0,0000.0,0001.52,0001.12,0001.06
2022-01-24 09:49:00,,0821.4,5.00,0.00,22.7,22.0,00.0,31.6,24.4,08.9,0000.0,0001.67,0001.18,0001.08
2022-01-24 09:50:00,,0821.4,5.00,0.00,22.7,22.0,00.0,31.6,24.4,09.0,0000.0,0001.72,0001.22,0001.12
2022-01-24 09:51:00,,0821.4,5.00,0.00,22.7,22.0,00.0,31.6,24.4,08.9,0000.0,0001.76,0001.25,0001.15
2022-01-24 09:52:00,,0821.4,4.99,0.00,22.7,22.0,00.0,31.6,24.4,08.9,0000.0,0001.77,0001.27,0001.17
2022-01-24 09:53:00,,0821.4,5.01,0.00,22.7,21.9,00.0,31.6,24.4,08.9,0000.0,0001.75,0001.24,0001.15
2022-01-24 09:54:00,,0821.4,5.01,0.00,22.7,21.9,00.0,31.6,24.5,09.0,0000.0,0001.71,0001.20,0001.11
2022-01-24 09:55:00,,0821.4,5.00,0.00,22.7,21.9,00.0,31.6,24.5,08.9,0000.0,0001.55,0001.09,0001.01
2022-01-24 09:56:00,,0821.4,5.01,0.00,22.7,21.9,00.0,31.6,24.5,08.8,0000.0,0001.35,0000.97,0000.90
2022-01-24 09:57:00,,0821.3,4.99,0.00,22.7,21.9,00.0,31.6,24.5,08.8,0000.0,0001.17,0000.88,0000.82
2022-01-24 09:58:00,,0821.3,5.00,0.00,22.7,21.9,00.0,31.6,24.4,08.8,0000.0,0001.09,0000.82,0000.77
2022-01-24 09:59:00,,0821.3,5.00,0.00,22.7,21.9,00.0,31.6,24.4,08.8,0000.0,0001.48,0000.80,0000.74
